CW7911 Weather Reports


time (UTC)temp
F
wind
direction
speed
knots
gust
knots
rain 1hr
in
rain 24hr
in
rain mn
in
humidity
%
barometer
mb
20260903012501 61 150 0.0 0.0 0.00 0.00 0.00 88 1031.0
20260903012000 61 150 0.0 0.0 0.00 0.00 0.00 88 1031.5
20260903011455 61 150 0.0 0.0 0.00 0.00 0.00 88 1031.5
20260903010950 61 150 0.0 0.0 0.00 0.00 0.00 88 1031.2
20260903010445 61 150 0.0 0.0 0.00 0.00 0.00 88 1031.3
20260903005943 61 150 0.0 0.0 0.00 0.00 0.00 88 1031.5
20260903005438 62 150 0.0 0.0 0.00 0.00 0.00 88 1031.4
20260903004935 62 150 0.0 0.0 0.00 0.00 0.00 88 1031.3
20260903004429 62 150 0.0 0.0 0.00 0.00 0.00 88 1031.2
20260903003925 62 150 0.0 0.0 0.00 0.00 0.00 87 1031.0
20260903003419 62 150 0.0 0.9 0.00 0.00 0.00 87 1030.7
20260903002920 62 150 0.0 0.0 0.00 0.00 0.00 87 1031.1
20260903002414 62 150 0.0 0.0 0.00 0.00 0.00 86 1031.2
20260903001909 62 150 0.0 0.9 0.00 0.00 0.00 86 1031.2
20260903001404 62 150 0.0 0.0 0.00 0.00 0.00 86 1030.9
20260903000903 62 150 0.0 1.7 0.00 0.00 0.00 85 1030.9
20260903000359 62 150 0.0 0.0 0.00 0.00 0.00 85 1031.2
20260902235857 62 150 0.0 0.0 0.00 0.00 0.00 85 1031.0
20260902235352 62 150 0.0 0.0 0.00 0.00 0.00 85 1031.2
20260902234851 62 150 0.0 0.0 0.00 0.00 0.00 84 1031.1
20260902234346 63 150 0.0 0.0 0.00 0.00 0.00 84 1031.3
20260902233844 63 150 0.0 0.0 0.00 0.00 0.00 83 1031.3
20260902233340 63 150 0.0 0.0 0.00 0.00 0.00 83 1031.4
20260902232838 63 150 0.0 0.0 0.00 0.00 0.00 82 1031.4
20260902232333 63 150 0.0 0.0 0.00 0.00 0.00 82 1031.8
20260902231833 63 150 0.0 0.0 0.00 0.00 0.00 82 1031.7
20260902231327 63 150 0.0 0.0 0.00 0.00 0.00 81 1031.8
20260902230823 63 150 0.0 0.0 0.00 0.00 0.00 81 1031.9
20260902230322 63 150 0.0 0.0 0.00 0.00 0.00 81 1032.1
20260902225816 63 150 0.0 0.0 0.00 0.00 0.00 81 1032.0
20260902225312 64 150 0.0 0.0 0.00 0.00 0.00 80 1031.7
20260902224810 64 150 0.0 0.0 0.00 0.00 0.00 80 1031.9
20260902224305 64 150 0.0 0.0 0.00 0.00 0.00 79 1032.2
20260902223802 64 150 0.0 0.0 0.00 0.00 0.00 78 1032.3
20260902223301 64 150 0.0 0.0 0.00 0.00 0.00 77 1032.1
20260902222754 64 150 0.0 0.0 0.00 0.00 0.00 77 1032.2
20260902222249 64 150 0.0 0.0 0.00 0.00 0.00 77 1032.4
20260902221743 64 150 0.0 0.0 0.00 0.00 0.00 77 1032.4
20260902221242 64 150 0.0 0.0 0.00 0.00 0.00 77 1032.3
20260902220738 64 150 0.0 0.0 0.00 0.00 0.00 77 1032.2
20260902220238 65 150 0.0 0.0 0.00 0.00 0.00 76 1032.2
20260902215733 65 150 0.0 0.0 0.00 0.00 0.00 76 1032.1
20260902215228 65 150 0.0 0.0 0.00 0.00 0.00 76 1032.2
20260902214724 65 150 0.0 0.0 0.00 0.00 0.00 76 1032.2
20260902214223 65 150 0.0 0.0 0.00 0.00 0.00 75 1032.2
20260902213719 65 150 0.0 0.0 0.00 0.00 0.00 75 1032.4
20260902213219 66 150 0.0 0.0 0.00 0.00 0.00 75 1032.4
20260902212718 66 150 0.0 0.0 0.00 0.00 0.00 75 1032.2
20260902212215 66 150 0.0 0.0 0.00 0.00 0.00 74 1032.2
20260902211711 66 150 0.0 0.0 0.00 0.00 0.00 75 1032.5
20260902211206 66 150 0.0 0.0 0.00 0.00 0.00 74 1032.2
20260902210700 66 150 0.0 0.0 0.00 0.00 0.00 74 1032.3
20260902210155 66 150 0.0 0.9 0.00 0.00 0.00 72 1032.5
20260902205653 66 150 0.0 0.0 0.00 0.00 0.00 71 1032.3
20260902205149 65 150 0.0 0.9 0.00 0.00 0.00 73 1032.3
20260902204644 65 150 0.0 0.9 0.00 0.00 0.00 73 1032.3
20260902204138 65 150 0.0 0.0 0.00 0.00 0.00 72 1032.5
20260902203634 65 150 0.0 0.0 0.00 0.00 0.00 73 1032.8
20260902203134 65 150 0.0 0.9 0.00 0.00 0.00 73 1033.1
20260902202630 66 150 0.0 0.0 0.00 0.00 0.00 73 1032.9
20260902202126 66 150 0.0 0.9 0.00 0.00 0.00 72 1032.9
20260902201621 66 150 0.0 0.0 0.00 0.00 0.00 73 1032.8
20260902201121 66 150 0.0 0.0 0.00 0.00 0.00 73 1032.8
20260902200616 66 150 0.0 0.9 0.00 0.00 0.00 73 1032.7
20260902200113 66 150 0.0 0.9 0.00 0.00 0.00 74 1032.8
20260902195608 66 150 0.0 1.7 0.00 0.00 0.00 73 1032.7
20260902195107 66 150 0.0 0.0 0.00 0.00 0.00 74 1033.1
20260902194606 66 150 0.0 0.9 0.00 0.00 0.00 73 1032.9
20260902194102 66 150 0.0 0.9 0.00 0.00 0.00 73 1033.1
20260902193558 67 150 0.0 0.0 0.00 0.00 0.00 72 1033.1
20260902193057 67 150 0.0 0.0 0.00 0.00 0.00 71 1033.3
20260902192555 67 150 0.0 0.9 0.00 0.00 0.00 72 1033.4
20260902192054 68 150 0.0 0.0 0.00 0.00 0.00 72 1033.3
20260902191550 67 150 0.0 0.0 0.00 0.00 0.00 71 1033.3
20260902191044 67 150 0.0 0.0 0.00 0.00 0.00 71 1033.2
20260902190540 67 150 0.0 0.0 0.00 0.00 0.00 71 1033.2
20260902190035 67 150 0.0 0.0 0.00 0.00 0.00 71 1033.4
20260902185531 67 150 0.0 0.0 0.00 0.00 0.00 71 1033.4
20260902185027 67 150 0.0 0.0 0.00 0.00 0.00 72 1033.3
20260902184521 67 150 0.0 0.0 0.00 0.00 0.00 71 1033.4
20260902184017 67 150 0.0 0.0 0.00 0.00 0.00 71 1033.5
20260902183513 67 150 0.0 0.9 0.00 0.00 0.00 70 1033.6
20260902183009 67 150 0.0 0.0 0.00 0.00 0.00 70 1033.3
20260902182505 67 150 0.0 0.0 0.00 0.00 0.00 69 1033.4
20260902182000 67 150 0.0 0.0 0.00 0.00 0.00 68 1033.4
20260902181456 67 150 0.0 0.0 0.00 0.00 0.00 68 1033.5
20260902180951 67 150 0.0 0.0 0.00 0.00 0.00 68 1033.5
20260902180446 67 150 0.0 0.9 0.00 0.00 0.00 68 1033.4
20260902175941 67 150 0.0 0.0 0.00 0.00 0.00 69 1033.6
20260902175441 67 150 0.0 0.0 0.00 0.00 0.00 68 1034.0
20260902174937 67 150 0.0 0.0 0.00 0.00 0.00 69 1033.6
20260902174434 67 150 0.0 0.0 0.00 0.00 0.00 69 1033.6
20260902173929 67 150 0.0 0.0 0.00 0.00 0.00 68 1033.8
20260902173428 67 150 0.0 0.0 0.00 0.00 0.00 67 1033.5
20260902172924 67 50 0.0 0.0 0.00 0.00 0.00 66 1033.5
20260902172423 67 50 0.0 0.0 0.00 0.00 0.00 67 1033.5
20260902171918 67 50 0.0 0.9 0.00 0.00 0.00 65 1033.6
20260902171414 68 50 0.0 0.0 0.00 0.00 0.00 64 1033.5
20260902170910 68 50 0.0 0.0 0.00 0.00 0.00 64 1033.3
20260902170405 68 50 0.0 0.0 0.00 0.00 0.00 63 1033.3
20260902165900 67 50 0.0 0.0 0.00 0.00 0.00 63 1033.3
20260902165359 67 50 0.0 0.0 0.00 0.00 0.00 64 1032.9
20260902164854 67 50 0.0 0.0 0.00 0.00 0.00 65 1033.3
20260902164349 67 50 0.0 0.0 0.00 0.00 0.00 63 1033.4
20260902163848 67 50 0.0 0.0 0.00 0.00 0.00 64 1033.2
20260902163343 67 50 0.0 0.0 0.00 0.00 0.00 64 1033.5
20260902162841 67 50 0.0 1.7 0.00 0.00 0.00 61 1033.7
20260902162337 67 50 0.0 0.0 0.00 0.00 0.00 67 1034.0
20260902161831 67 50 0.0 0.0 0.00 0.00 0.00 70 1033.9
20260902161327 67 50 0.0 0.9 0.00 0.00 0.00 69 1034.0
20260902160823 68 50 0.0 0.0 0.00 0.00 0.00 68 1034.1
20260902160318 68 50 0.0 0.9 0.00 0.00 0.00 65 1034.1
20260902155816 68 50 0.0 0.9 0.00 0.00 0.00 64 1033.8
20260902155314 68 50 0.0 0.0 0.00 0.00 0.00 72 1033.8
20260902154810 68 50 0.0 0.0 0.00 0.00 0.00 71 1034.3
20260902154306 68 50 0.0 0.0 0.00 0.00 0.00 74 1034.1
20260902153804 69 50 0.0 0.0 0.00 0.00 0.00 74 1034.2
20260902153259 69 50 0.0 0.0 0.00 0.00 0.00 73 1034.4
20260902152754 69 50 0.0 0.0 0.00 0.00 0.00 72 1034.3
20260902152251 69 50 0.0 0.0 0.00 0.00 0.00 73 1034.3
20260902151750 69 50 0.0 0.0 0.00 0.00 0.00 73 1034.2
20260902151245 68 50 0.0 0.0 0.00 0.00 0.00 73 1034.0
20260902150740 68 50 0.0 0.0 0.00 0.00 0.00 76 1033.9
20260902150237 68 50 0.0 0.0 0.00 0.00 0.00 77 1034.0
20260902145735 67 50 0.0 0.0 0.00 0.00 0.00 77 1033.9
20260902145231 68 50 0.0 0.0 0.00 0.00 0.00 76 1034.1
20260902144726 67 50 0.0 0.0 0.00 0.00 0.00 78 1033.8
20260902144222 67 50 0.0 0.0 0.00 0.00 0.00 78 1034.2
20260902143718 66 50 0.0 0.0 0.00 0.00 0.00 79 1034.0
20260902143213 66 50 0.0 0.0 0.00 0.00 0.00 79 1034.1
20260902142708 65 50 0.0 0.0 0.00 0.00 0.00 80 1033.8
20260902142203 66 50 0.0 0.0 0.00 0.00 0.00 79 1033.9
20260902141658 65 50 0.0 0.0 0.00 0.00 0.00 80 1033.9
20260902141153 65 50 0.0 0.0 0.00 0.00 0.00 80 1033.7
20260902140649 65 50 0.0 0.0 0.00 0.00 0.00 81 1033.8
20260902140143 65 50 0.0 0.0 0.00 0.00 0.00 82 1033.9
20260902135642 65 50 0.0 0.0 0.00 0.00 0.00 82 1033.8
20260902135138 65 50 0.0 0.0 0.00 0.00 0.00 82 1033.8
20260902134633 65 50 0.0 0.0 0.00 0.00 0.00 82 1033.7
20260902134132 64 50 0.0 0.0 0.00 0.00 0.00 83 1033.5
20260902133627 64 50 0.0 0.9 0.00 0.00 0.00 83 1033.7
20260902133122 64 50 0.0 0.0 0.00 0.00 0.00 86 1033.7
20260902132617 63 50 0.0 0.0 0.00 0.00 0.00 88 1033.8
20260902132113 62 50 0.0 0.0 0.00 0.00 0.00 89 1033.7
20260902131609 62 50 0.0 0.0 0.00 0.00 0.00 89 1033.8
20260902131104 62 50 0.0 0.0 0.00 0.00 0.00 89 1034.0
20260902130559 62 50 0.0 0.9 0.00 0.00 0.00 89 1033.7
20260902130054 62 50 0.0 0.0 0.00 0.00 0.00 89 1033.7
20260902125550 62 50 0.0 0.0 0.00 0.00 0.00 89 1033.9
20260902125046 62 50 0.0 0.0 0.00 0.00 0.00 89 1033.6
20260902124543 62 50 0.0 0.0 0.00 0.00 0.00 89 1033.8
20260902124042 62 50 0.0 0.0 0.00 0.00 0.00 89 1033.7
20260902123538 63 50 0.0 0.0 0.00 0.00 0.00 88 1033.5
20260902123037 64 50 0.0 0.0 0.00 0.00 0.00 87 1033.7
20260902122532 63 50 0.0 0.0 0.00 0.00 0.00 87 1033.5
20260902122027 63 50 0.0 0.0 0.00 0.00 0.00 87 1033.9
20260902121522 63 50 0.0 0.0 0.00 0.00 0.00 87 1033.6
20260902121017 63 50 0.0 0.0 0.00 0.00 0.00 87 1033.8
20260902120514 62 50 0.0 0.0 0.00 0.00 0.00 88 1033.9
20260902120009 62 50 0.0 0.0 0.00 0.00 0.00 89 1034.0
20260902115504 62 50 0.9 1.7 0.00 0.00 0.00 89 1033.7
20260902115001 62 50 0.0 0.0 0.00 0.00 0.00 89 1033.8
20260902114456 62 50 0.0 0.0 0.00 0.00 0.00 89 1033.8
20260902113950 62 50 0.0 0.0 0.00 0.00 0.00 89 1033.6
20260902113446 62 50 0.0 0.0 0.00 0.00 0.00 90 1033.5
20260902112946 62 50 0.0 0.0 0.00 0.00 0.00 90 1033.6
20260902112442 62 50 0.0 0.0 0.00 0.00 0.00 90 1033.9
20260902111938 62 50 0.0 0.0 0.00 0.00 0.00 91 1033.8
20260902111434 62 50 0.0 0.9 0.00 0.00 0.00 91 1033.6
20260902110930 62 50 0.0 0.0 0.00 0.00 0.00 91 1033.6
20260902110425 62 50 0.0 0.0 0.00 0.00 0.00 91 1033.5
20260902105920 62 50 0.0 0.0 0.00 0.00 0.00 92 1033.2
20260902105415 62 50 0.0 0.0 0.00 0.00 0.00 92 1033.4
20260902104909 62 50 0.0 0.0 0.00 0.00 0.00 92 1033.3
20260902104405 62 50 0.0 0.0 0.00 0.00 0.00 92 1033.1
20260902103859 62 50 0.0 0.0 0.00 0.00 0.00 92 1033.1
20260902103354 62 50 0.0 0.0 0.00 0.00 0.00 92 1033.2
20260902102849 62 50 0.0 0.0 0.00 0.00 0.00 92 1032.8
20260902102348 62 50 0.0 0.0 0.00 0.00 0.00 92 1032.8
20260902101842 62 50 0.0 0.0 0.00 0.00 0.00 93 1032.8
20260902101336 62 50 0.0 0.0 0.00 0.00 0.00 93 1032.9
20260902100830 62 50 0.0 0.0 0.00 0.00 0.00 93 1032.8
20260902100324 62 50 0.0 0.0 0.00 0.00 0.00 93 1032.9
20260902095819 62 50 0.0 0.0 0.00 0.00 0.00 93 1032.8
20260902095314 62 50 0.0 0.0 0.00 0.00 0.00 93 1032.8
20260902094808 62 50 0.0 0.0 0.00 0.00 0.00 93 1032.7
20260902094305 62 50 0.0 0.0 0.00 0.00 0.00 94 1032.6
20260902093804 62 50 0.0 0.0 0.00 0.00 0.00 94 1032.7
20260902093259 61 50 0.0 0.0 0.00 0.00 0.00 94 1032.4
20260902092758 61 50 0.0 0.0 0.00 0.00 0.00 94 1032.7
20260902092253 61 50 0.0 0.0 0.00 0.00 0.00 94 1032.6
20260902091752 61 50 0.0 0.0 0.00 0.00 0.00 94 1032.8
20260902091244 61 50 0.0 0.0 0.00 0.00 0.00 94 1032.7
20260902090740 61 50 0.0 0.0 0.00 0.00 0.00 94 1032.7
20260902090239 61 50 0.0 0.0 0.00 0.00 0.00 94 1032.7
20260902085734 61 50 0.0 0.0 0.00 0.00 0.00 94 1032.7
20260902085229 61 50 0.0 0.0 0.00 0.00 0.00 94 1032.9
20260902084725 61 50 0.0 0.0 0.00 0.00 0.00 94 1032.7
20260902084221 61 50 0.0 0.0 0.00 0.00 0.00 94 1032.9
20260902083720 61 50 0.0 0.0 0.00 0.00 0.00 94 1032.6
20260902083221 61 50 0.0 0.0 0.00 0.00 0.00 94 1032.8
20260902082716 61 50 0.0 0.0 0.00 0.00 0.00 94 1032.6
20260902082212 61 50 0.0 0.0 0.00 0.00 0.00 94 1032.7
20260902081708 61 50 0.0 0.0 0.00 0.00 0.00 93 1032.8
20260902081203 61 50 0.0 0.0 0.00 0.00 0.00 93 1032.8
20260902080658 61 50 0.0 0.0 0.00 0.00 0.00 93 1032.6
20260902080154 61 50 0.0 0.0 0.00 0.00 0.00 93 1032.9
20260902075649 62 50 0.0 0.0 0.00 0.00 0.00 92 1032.4
20260902075145 62 50 0.0 0.0 0.00 0.00 0.00 92 1032.6
20260902074639 62 50 0.0 0.0 0.00 0.00 0.00 92 1032.3
20260902074135 62 50 0.0 0.0 0.00 0.00 0.00 92 1032.4
20260902073630 62 50 0.0 0.0 0.00 0.00 0.00 92 1032.5
20260902073126 62 50 0.0 0.0 0.00 0.00 0.00 92 1032.3
20260902072622 62 50 0.0 0.0 0.00 0.00 0.00 92 1032.3
20260902072118 62 50 0.0 0.0 0.00 0.00 0.00 92 1032.2
20260902071613 62 50 0.0 0.0 0.00 0.00 0.00 92 1032.3
20260902071109 62 50 0.0 0.0 0.00 0.00 0.00 92 1032.1
20260902070604 62 50 0.0 0.0 0.00 0.00 0.00 92 1032.0
20260902070059 62 50 0.0 0.0 0.00 0.00 0.00 92 1032.1
20260902065558 62 50 0.0 0.0 0.00 0.00 0.00 92 1032.0
20260902065054 62 50 0.0 0.0 0.00 0.00 0.00 92 1032.3
20260902064550 62 50 0.0 0.0 0.00 0.00 0.00 92 1032.3
20260902064044 62 50 0.0 0.0 0.00 0.00 0.00 92 1032.2
20260902063539 62 50 0.0 0.0 0.00 0.00 0.00 92 1032.0
20260902063034 62 50 0.0 0.0 0.00 0.00 0.00 92 1032.0
20260902062533 62 50 0.0 0.0 0.00 0.00 0.00 92 1031.8
20260902062029 62 50 0.0 0.0 0.00 0.00 0.00 92 1031.9
20260902061528 62 50 0.0 0.0 0.00 0.00 0.00 92 1032.1
20260902061024 62 50 0.0 0.0 0.00 0.00 0.00 92 1032.1
20260902060521 62 50 0.0 0.0 0.00 0.00 0.00 92 1032.0
20260902060017 62 50 0.0 0.0 0.00 0.00 0.00 92 1032.3
20260902055512 62 50 0.0 0.0 0.00 0.00 0.00 92 1032.2
20260902055007 62 50 0.0 0.0 0.00 0.00 0.00 92 1032.1
20260902054507 62 50 0.0 0.0 0.00 0.00 0.00 92 1031.9
20260902054003 62 50 0.0 0.0 0.00 0.00 0.00 91 1032.1
20260902053458 62 50 0.0 0.0 0.00 0.00 0.00 91 1032.0
20260902052957 62 50 0.0 0.0 0.00 0.00 0.00 91 1031.9
20260902052452 62 50 0.0 0.0 0.00 0.00 0.00 91 1032.0
20260902051948 62 50 0.0 0.0 0.00 0.00 0.00 91 1031.8
20260902051442 62 50 0.0 0.0 0.00 0.00 0.00 91 1031.7
20260902050941 62 50 0.0 0.0 0.00 0.00 0.00 90 1031.6
20260902050441 62 50 0.0 0.0 0.00 0.00 0.00 90 1031.4
20260902045936 63 50 0.0 0.0 0.00 0.00 0.00 90 1031.3
20260902045432 63 50 0.0 0.0 0.00 0.00 0.00 90 1031.2
20260902044928 63 50 0.0 0.0 0.00 0.00 0.00 90 1031.2
20260902044423 63 50 0.0 0.0 0.00 0.00 0.00 90 1031.4
20260902043918 63 50 0.0 0.0 0.00 0.00 0.00 91 1031.2
20260902043408 63 50 0.0 0.0 0.00 0.00 0.00 91 1031.1
20260902042903 63 50 0.0 0.0 0.00 0.00 0.00 90 1031.1
20260902042402 63 50 0.0 0.0 0.00 0.00 0.00 90 1031.2
20260902041857 63 50 0.0 0.0 0.00 0.00 0.00 90 1031.3
20260902041352 63 50 0.0 0.0 0.00 0.00 0.00 90 1031.1
20260902040850 63 50 0.0 0.0 0.00 0.00 0.00 90 1031.1
20260902040346 63 50 0.0 0.0 0.00 0.00 0.00 90 1031.2
20260902035844 63 50 0.0 0.0 0.00 0.00 0.00 90 1031.2
20260902035340 63 50 0.0 0.0 0.00 0.00 0.00 90 1030.9
20260902034839 63 50 0.0 0.0 0.00 0.00 0.00 90 1030.9
20260902034335 63 50 0.0 0.0 0.00 0.00 0.00 90 1030.8
20260902033832 63 50 0.0 0.0 0.00 0.00 0.00 90 1030.8
20260902033328 63 50 0.0 0.0 0.00 0.00 0.00 90 1031.0
20260902032827 64 50 0.0 0.0 0.00 0.00 0.00 90 1030.8
20260902032322 64 50 0.0 0.0 0.00 0.00 0.00 89 1031.0
20260902031821 64 50 0.0 0.0 0.00 0.00 0.00 90 1031.1
20260902031318 64 50 0.0 0.0 0.00 0.00 0.00 90 1030.8
20260902030813 64 50 0.0 0.0 0.00 0.00 0.00 90 1031.0
20260902030308 64 50 0.0 0.0 0.00 0.00 0.00 90 1031.0
20260902025806 64 50 0.0 0.0 0.00 0.00 0.00 89 1031.0
20260902025306 64 50 0.0 0.0 0.00 0.00 0.00 89 1030.9
20260902024756 64 50 0.0 0.0 0.00 0.00 0.00 89 1030.6
20260902024252 64 50 0.0 0.0 0.00 0.00 0.00 89 1030.4
20260902023748 64 50 0.0 0.0 0.00 0.00 0.00 90 1030.3
20260902023243 64 50 0.0 0.0 0.00 0.00 0.00 90 1030.1
20260902022742 64 50 0.0 0.0 0.00 0.00 0.00 90 1030.5
20260902022238 64 50 0.0 0.0 0.00 0.00 0.00 89 1030.5
20260902021733 64 50 0.0 0.0 0.00 0.00 0.00 89 1030.5
20260902021233 64 50 0.0 0.0 0.00 0.00 0.00 89 1030.8
20260902020729 64 50 0.0 0.0 0.00 0.00 0.00 89 1030.8
20260902020225 64 50 0.0 0.0 0.00 0.00 0.00 89 1030.7
20260902015720 64 50 0.0 0.0 0.00 0.00 0.00 89 1030.6
20260902015217 64 50 0.0 0.0 0.00 0.00 0.00 89 1030.9
20260902014712 64 50 0.0 0.0 0.00 0.00 0.00 89 1030.5
20260902014209 64 50 0.0 0.0 0.00 0.00 0.00 89 1030.6
20260902013707 64 50 0.0 0.0 0.00 0.00 0.00 89 1030.5
20260902013202 64 50 0.0 0.0 0.00 0.00 0.00 89 1030.4